Estación municipal de Susqueda - Veïnat del Coll (La Selva, )

Consulta los datos en tiempo real de la estación municipal de Susqueda - Veïnat del Coll





Hora UTC 07:30
Temperatura 10.7 ºC
Humedad 91.2 %
Presión 1013.2 hPa
Pluja 0.0 mm
Velocidad viento 9.0 km/h
Dirección viento WSW
Radiación solar 492.7 W/m²

Datos diarios 2026-05-04



Hora UTC (invierno +1h; verano +2h)
Temperatura (ºC) Humedad (%) Presión (hPa) Velocidad viento (km/h) Precipitación (mm) Radiación solar (W/m²)
Hora UTC Aire Humedad Presión Vel. Dir. Vel. Max Dir. Intent. máx 5 min. Rad. Sol.
00:05 9.4 98.8 1014.5 3.0 W 3.0 WSW 0.0 0.1
00:10 9.3 98.7 1014.5 3.9 WSW 8.8 W 0.0 0.1
00:15 9.2 98.7 1014.5 3.4 SW 10.2 SW 0.0 0.1
00:20 9.2 98.8 1014.5 5.6 S 11.6 SSE 0.0 0.1
00:25 9.3 99.0 1014.3 3.7 SSW 9.9 S 0.0 0.1
00:30 9.3 98.8 1014.3 1.8 WSW 4.9 WNW 0.0 0.1
00:35 9.2 98.7 1014.2 5.7 SSW 13.1 S 0.0 0.1
00:40 9.3 98.9 1014.2 5.4 S 13.4 SSE 0.0 0.1
00:45 9.2 98.7 1014.2 5.2 SSW 11.6 SSW 0.0 0.1
00:50 9.1 98.7 1014.2 5.8 SSW 11.3 SSE 0.0 0.1
00:55 9.0 98.8 1014.1 5.3 SSW 10.9 S 0.0 0.1
01:00 9.0 98.8 1014.1 6.2 SSW 13.4 SSW 0.0 0.1
01:05 9.0 98.8 1014.1 4.2 SW 9.9 WNW 0.0 0.1
01:10 9.0 98.9 1014.1 5.3 WSW 15.5 WNW 0.0 0.1
01:15 8.9 98.8 1014.0 4.4 WSW 14.8 W 0.0 0.1
01:20 8.9 98.9 1014.0 6.3 WSW 14.8 WNW 0.0 0.1
01:25 8.8 98.9 1013.9 5.8 SW 17.3 WSW 0.0 0.1
01:30 8.8 98.9 1013.9 6.4 SW 16.9 WSW 0.0 0.1
01:35 8.8 99.0 1013.9 4.6 SSW 15.9 SW 0.0 0.1
01:40 8.9 99.0 1013.9 4.6 SW 12.4 WSW 0.0 0.1
01:45 8.9 99.0 1013.9 5.8 SW 15.2 W 0.0 0.1
01:50 8.9 99.0 1013.9 6.1 SSW 13.1 SE 0.0 0.1
01:55 9.0 99.0 1013.9 5.0 SSW 14.8 SW 0.0 0.1
02:00 9.0 99.0 1013.9 4.4 SW 11.6 S 0.0 0.1
02:05 9.0 99.0 1013.8 6.2 WSW 18.0 WSW 0.0 0.1
02:10 9.0 99.0 1013.8 7.5 WSW 18.7 W 0.0 0.1
02:15 9.0 99.0 1013.7 6.0 W 18.0 WSW 0.0 0.1
02:20 9.0 99.0 1013.7 4.0 WSW 13.4 WNW 0.0 0.1
02:25 9.0 99.0 1013.7 4.9 WNW 11.3 SSW 0.0 0.1
02:30 9.0 99.0 1013.7 2.0 WNW 5.6 SW 0.0 0.1
02:35 9.0 99.0 1013.7 3.3 SW 12.7 S 0.0 0.1
02:40 8.9 99.0 1013.7 4.3 SW 10.6 SSW 0.0 0.1
02:45 9.0 99.0 1013.8 3.2 SW 10.6 WNW 0.0 0.1
02:50 9.0 99.1 1013.8 2.3 SSW 9.2 WNW 0.0 0.1
02:55 9.0 99.1 1013.8 2.8 SSE 8.1 SE 0.0 0.1
03:00 9.0 99.1 1013.8 4.0 S 10.6 SSE 0.0 0.1
03:05 9.1 99.1 1013.7 3.3 SSE 12.0 S 0.0 0.1
03:10 9.1 99.0 1013.7 1.7 W 7.4 NNW 0.0 0.1
03:15 9.1 98.9 1013.8 4.6 SW 10.9 S 0.0 0.1
03:20 9.1 98.9 1013.8 5.1 S 10.9 S 0.0 0.1
03:25 9.2 99.0 1013.7 7.0 S 13.1 S 0.0 0.1
03:30 9.3 99.0 1013.7 7.0 S 13.8 S 0.0 0.1
03:35 9.3 98.9 1013.8 7.6 S 18.7 SSW 0.0 0.1
03:40 9.3 98.8 1013.8 7.5 S 14.5 SSE 0.0 0.1
03:45 9.3 98.8 1013.7 8.9 S 15.9 S 0.0 0.1
03:50 9.5 98.9 1013.7 10.6 S 19.1 S 0.0 0.1
03:55 10.0 99.0 1013.5 11.2 S 19.4 SSW 0.0 0.1
04:00 10.3 98.2 1013.5 8.6 SSW 16.6 SSW 0.0 0.1
04:05 10.3 96.6 1013.5 7.4 SSW 13.4 SW 0.0 0.1
04:10 9.8 95.9 1013.5 6.9 SW 15.5 SSW 0.0 0.1
04:15 9.5 96.4 1013.5 7.1 SW 14.1 SSW 0.0 0.1
04:20 9.4 96.7 1013.5 7.5 SSW 14.5 SW 0.0 0.1
04:25 9.5 96.8 1013.4 5.1 SSW 13.1 S 0.0 0.1
04:30 9.5 96.3 1013.4 7.1 SSW 16.6 S 0.0 0.4
04:35 9.6 96.2 1013.3 5.9 SSW 12.7 SW 0.0 0.9
04:40 9.5 95.6 1013.3 7.2 SSW 13.8 S 0.0 1.8
04:45 9.4 95.6 1013.3 4.8 SSW 15.5 WSW 0.0 3.3
04:50 9.2 95.6 1013.3 5.9 SW 15.5 SSW 0.0 5.4
04:55 9.1 95.6 1013.2 4.7 SSW 12.7 SSW 0.0 7.0
05:00 9.0 95.7 1013.2 6.6 SSW 14.5 S 0.0 9.0
05:05 9.0 95.8 1013.2 4.9 SSW 11.3 WSW 0.0 10.5
05:10 9.0 96.0 1013.2 4.8 SW 15.9 S 0.0 12.6
05:15 9.0 96.1 1013.2 4.0 SW 13.8 WSW 0.0 16.3
05:20 9.0 96.2 1013.2 6.8 SW 16.6 SSW 0.0 17.8
05:25 9.0 96.4 1013.1 7.3 SW 19.1 SSW 0.0 26.0
05:30 9.0 96.7 1013.1 5.8 WSW 16.2 SW 0.0 33.3
05:35 9.0 97.0 1013.1 5.8 WSW 18.0 SW 0.0 59.6
05:40 9.1 97.3 1013.1 5.2 WSW 18.7 SW 0.0 91.1
05:45 9.1 97.4 1013.1 8.0 W 16.6 SW 0.0 67.8
05:50 9.2 97.7 1013.1 7.3 W 16.9 S 0.0 191.6
05:55 9.4 98.1 1013.1 6.0 WSW 18.4 WNW 0.0 236.7
06:00 9.6 97.8 1013.1 6.8 WSW 18.4 W 0.0 237.5
06:05 9.7 97.6 1013.1 7.6 WSW 23.3 W 0.0 238.9
06:10 9.7 96.8 1013.1 7.2 WSW 21.9 SW 0.0 156.8
06:15 9.6 96.6 1013.1 8.4 WSW 20.5 W 0.0 276.9
06:20 9.7 96.7 1013.1 8.0 WSW 22.6 WSW 0.0 294.2
06:25 9.9 96.1 1013.1 8.2 WSW 25.8 WSW 0.0 316.8
06:30 10.1 95.3 1013.1 8.7 WSW 25.1 S 0.0 374.9
06:35 10.1 94.3 1013.1 8.0 W 20.8 W 0.0 359.4
06:40 10.2 93.8 1013.1 9.2 WSW 30.0 W 0.0 356.2
06:45 10.2 93.3 1013.0 8.2 WSW 23.6 W 0.0 379.7
06:50 10.3 92.9 1013.0 8.8 WSW 30.3 WSW 0.0 487.1
06:55 10.4 92.3 1012.9 9.7 W 24.3 W 0.0 456.9
07:00 10.5 92.1 1012.9 8.3 W 22.9 WSW 0.0 450.2
07:05 10.6 91.7 1012.9 12.3 WSW 30.3 WNW 0.0 517.4
07:10 10.6 92.0 1012.9 10.4 W 30.7 W 0.0 477.6
07:15 10.7 91.5 1013.1 9.8 W 34.6 W 0.0 425.2
07:20 10.5 91.3 1013.1 8.8 WSW 22.2 WNW 0.0 172.2
07:25 10.3 92.5 1013.2 8.8 W 28.6 W 0.0 418.0
07:30 10.7 91.2 1013.2 9.0 WSW 26.5 W 0.0 492.7
Máxima 10.7 99.1 1014.5 12.3 WSW 34.6 W 0.0 517.4
Mínima 8.8 91.2 1012.9
Total 0.0